IRIDIUM 134 (43075 NORAD) Tracking and Keplerian Element Data

This shows tracking and keplerian element data for the satellite.

Feedback or suggestion? Click here.




ElementValue
Catalog43075
NameIRIDIUM 134
Epoch Orbit37267
Epoch Day34.83943588
Epoch Year2025
RAAN170.3496
Inclination86.4028
Eccentricity0.000241
Argument of Perigee96.4247
Mean Anonmoly263.7223
Mean Motion14.34218162
Decay Rate4.86E-06
L11 43075U 17083F 25034.83943588 .00000486 00000+0 16657-3 0 9995
L22 43075 86.4028 170.3496 0002410 96.4247 263.7223 14.34218162372670



Live tracking and technical data element details for IRIDIUM 134 (NORAD 43075). IRIDIUM 134 can be tracked NOW for your location showing map with azimuth and elevation plus other details from your city location.







IsCatalogInMostPopularTable: catalog: 43075, numindb: 707
Update: records affected: 1



GetName: 43075 IRIDIUM 134

Hit Count: updated at: Wed, 18 Jun 2025 05:45:47 GMT